Kingman, AZ

12:39 AM MST on May 23, 2018 (GMT -0700)
Kingman

Weather History for KIGM - October, 2012

Change the Weather History Date:

Tuesday, October 30, 2012

  Actual Average Record
Temperature  
Mean Temperature 62 °F 57 °F  
Max Temperature 83 °F 72 °F 87 °F (1934)
Min Temperature 41 °F 43 °F 23 °F (1971)
Degree Days  
Heating Degree Days 3 8  
Month to date heating degree days 82 123  
Since 1 July heating degree days 82 129  
Cooling Degree Days 0 0  
Month to date cooling degree days 93 66  
Year to date cooling degree days 2297 2092  
Growing Degree Days 12 (Base 50)    
Moisture  
Dew Point 17 °F    
Average Humidity 22    
Maximum Humidity 36    
Minimum Humidity 7    
Precipitation  
Precipitation 0.00 in 0.03 in 0.90 in (1987)
Month to date precipitation 0.36 0.68  
Year to date precipitation 6.88 6.97  
Sea Level Pressure  
Sea Level Pressure 29.98 in    
Wind  
Wind Speed 3 mph (North)    
Max Wind Speed 12 mph    
Max Gust Speed 12 mph    
Visibility 10 miles    
Events      
T = Trace of Precipitation, MM = Missing Value Source: NWS Daily Summary

Daily Weather History Graph

Daily Weather History Graph

Search for Another Location

Airport or City:

Astronomy

Oct. 30, 2012 Rise Set
Actual Time 6:55 AM MST 5:42 PM MST
Civil Twilight 6:29 AM MST 6:08 PM MST
Nautical Twilight 5:59 AM MST 6:38 PM MST
Astronomical Twilight 5:30 AM MST 7:08 PM MST
Moon 6:18 PM MST (10/30) 7:43 AM MST (10/30)
Length of Visible Light 11h 39m
Length of Day
10h 46m
Full, 99% of the Moon is Illuminated
Oct 30
Full
Nov 6
Last Quarter
Nov 13
New
Nov 20
First Quarter
Nov 28
Full

Hourly Weather History & Observations

Time (MST) Temp. Windchill Dew Point Humidity Pressure Visibility Wind Dir Wind Speed Gust Speed Precip Events Conditions
12:51 AM 48.0 °F - 19.0 °F 32% 30.00 in 10.0 mi Calm Calm - N/A   Clear
1:51 AM 46.0 °F - 18.0 °F 33% 30.00 in 10.0 mi Calm Calm - N/A   Clear
2:51 AM 48.9 °F - 18.0 °F 29% 29.99 in 10.0 mi Calm Calm - N/A   Clear
3:51 AM 42.1 °F - 17.1 °F 37% 29.99 in 10.0 mi Calm Calm - N/A   Clear
4:51 AM 43.0 °F - 18.0 °F 37% 29.99 in 10.0 mi Calm Calm - N/A   Clear
5:51 AM 48.9 °F - 17.1 °F 28% 30.01 in 10.0 mi Calm Calm - N/A   Clear
6:51 AM 46.0 °F 43.1 °F 17.1 °F 31% 30.02 in 10.0 mi SE 5.8 mph - N/A   Clear
7:51 AM 51.1 °F - 19.0 °F 28% 30.05 in 10.0 mi Calm Calm - N/A   Clear
8:51 AM 61.0 °F - 19.9 °F 21% 30.05 in 10.0 mi Calm Calm - N/A   Clear
9:51 AM 69.1 °F - 19.0 °F 15% 30.03 in 10.0 mi North 4.6 mph - N/A   Clear
10:51 AM 73.0 °F - 18.0 °F 12% 30.03 in 10.0 mi North 4.6 mph - N/A   Clear
11:51 AM 78.1 °F - 16.0 °F 10% 30.00 in 10.0 mi NNW 5.8 mph - N/A   Clear
12:51 PM 81.0 °F - 15.1 °F 8% 29.96 in 10.0 mi Variable 6.9 mph - N/A   Clear
1:51 PM 81.0 °F - 12.9 °F 8% 29.94 in 10.0 mi Variable 5.8 mph - N/A   Clear
2:51 PM 82.0 °F - 14.0 °F 8% 29.92 in 10.0 mi NW 5.8 mph - N/A   Clear
3:51 PM 81.0 °F - 14.0 °F 8% 29.93 in 10.0 mi North 3.5 mph - N/A   Clear
4:51 PM 80.1 °F - 15.1 °F 9% 29.92 in 10.0 mi NNE 5.8 mph - N/A   Unknown
5:51 PM 68.0 °F - 16.0 °F 14% 29.93 in 10.0 mi South 3.5 mph - N/A   Clear
6:51 PM 64.0 °F - 19.0 °F 18% 29.96 in 10.0 mi SSW 4.6 mph - N/A   Clear
7:51 PM 57.0 °F - 18.0 °F 22% 29.98 in 10.0 mi East 5.8 mph - N/A   Clear
9:51 PM 55.9 °F - 19.9 °F 25% 29.96 in 10.0 mi Calm Calm - N/A   Clear
10:51 PM 50.0 °F - 19.0 °F 29% 29.96 in 10.0 mi Calm Calm - N/A   Clear
11:51 PM 50.0 °F - 18.0 °F 28% 29.96 in 10.0 mi Calm Calm - N/A   Clear